Location: Julian California
(33.0790°N, 116.6010°W)
Time: 01:33:26
(UTC-08:00)

COSMOS 2455 - Pass Details

Date: 19 May 2017
Orbit: 900 x 910 km, 67.1° (Epoch: 23 November)

Event Time Altitude Azimuth Distance (km) Brightness Sun altitude
Rises 20:37:20 0° 347° (NNW) 3,521 6.7 -11.0°
Reaches altitude 10° 20:40:22 10° 1° (N) 2,578 5.7 -11.5°
Maximum altitude 20:45:06 24° 54° (NE) 1,780 4.2 -12.3°
Enters shadow 20:48:44 14° 99° (E) 2,284 4.4 -12.9°
